RH
57 62 65 64 63 62 57 54 51 48 47 46 45 45 43 41 39 36 34 31 29 28 26 25 22 20 21 21 21 22 23 23 22 22 23 23 24 25 26 26 27 26 26 25 25 25 25 26 26 26 26 26 26 26 26 27 27 27 27 28 28 29
51 55 56 57 59 60 60 59 57 55 53 51 50 48 47 45 42 39 36 33 32 31 32 35 33 25 22 22 22 22 23 24 23 23 23 23 24 25 26 27 27 27 26 26 25 26 26 26 26 27 28 28 28 28 28 28 29 29 29 29 29 30
41 44 48 54 58 60 62 63 63 62 60 58 55 52 51 48 46 42 39 36 34 34 38 43 43 35 25 22 24 23 24 25 24 24 24 24 24 26 27 27 28 27 27 26 26 26 26 27 27 27 28 30 30 31 31 31 31 31 32 35 36 34
34 35 41 48 54 59 62 64 66 67 65 63 60 58 55 52 49 45 41 39 38 40 43 44 46 42 30 24 24 23 25 25 25 25 25 25 25 26 27 28 28 28 27 27 27 27 27 27 28 28 28 29 30 31 32 33 34 34 39 46 49 47
30 31 35 40 48 56 63 69 73 71 68 65 63 62 58 56 51 47 44 41 43 44 43 46 48 43 33 28 26 24 25 26 25 25 26 26 27 27 28 29 29 28 28 28 27 28 28 28 28 29 29 29 29 30 31 33 34 34 42 47 48 54
31 34 38 41 49 59 70 79 81 76 71 69 67 64 62 58 53 49 46 45 49 50 48 52 50 40 34 33 29 27 26 26 26 26 26 27 27 28 28 29 29 29 29 29 29 28 29 29 29 29 29 29 29 30 31 32 32 33 40 42 43 54
34 39 45 51 60 69 77 82 81 75 72 74 73 72 68 61 56 51 48 50 54 57 58 56 48 39 37 36 32 30 27 26 27 27 27 27 28 28 28 29 30 30 30 29 29 29 29 29 29 30 29 30 30 30 31 31 32 34 37 39 45 59
34 45 56 63 69 72 72 75 75 72 73 78 79 78 74 64 58 52 50 55 57 55 54 52 48 43 40 39 36 33 31 29 27 27 28 27 28 28 28 29 30 31 31 30 30 29 29 30 30 30 30 30 30 30 31 31 31 33 36 45 58 67
43 56 63 64 65 65 62 67 76 77 78 83 82 79 74 66 59 55 55 58 57 51 48 51 54 50 47 45 41 37 34 32 30 28 28 27 27 28 28 28 29 31 31 30 30 30 29 30 30 30 30 30 31 31 31 31 31 36 46 60 71 73
54 62 65 67 73 76 72 74 82 86 86 87 86 82 75 67 61 58 61 61 57 53 53 58 63 61 60 58 55 49 40 33 32 30 28 27 27 27 28 28 29 30 30 30 30 30 30 30 30 30 30 30 30 31 31 31 37 50 62 70 75 75
63 69 76 82 85 89 91 88 86 87 88 87 86 85 78 68 65 66 67 62 56 57 59 64 70 71 70 70 68 62 50 35 29 29 29 28 28 28 28 28 29 29 30 30 30 31 30 30 30 30 30 31 31 31 31 36 50 64 71 74 76 77
61 65 75 80 76 76 84 86 85 84 86 88 86 85 80 72 74 76 71 65 64 68 68 71 77 77 74 73 71 69 62 48 33 27 27 28 29 29 28 28 28 29 30 30 31 31 31 30 30 30 31 31 30 31 37 48 62 72 76 77 77 77
51 55 63 64 63 66 69 75 85 85 85 89 86 83 84 82 83 81 76 75 75 75 74 78 80 78 76 74 72 72 72 67 55 40 30 27 27 27 28 29 29 30 30 30 30 30 30 30 30 31 31 30 32 41 52 61 70 77 80 79 76 76
51 50 47 42 46 56 59 67 82 87 87 89 85 83 87 90 89 84 80 78 78 78 77 79 78 78 78 75 76 76 74 75 72 64 52 39 30 26 26 28 30 31 30 30 30 30 30 29 28 28 30 36 48 59 66 69 75 79 79 78 77 76
48 38 33 35 41 49 52 59 72 83 90 91 87 86 88 92 89 82 77 75 78 81 79 78 77 80 80 79 82 80 77 75 76 76 67 52 36 25 25 27 28 29 29 29 29 31 29 29 33 36 42 53 64 69 69 72 76 76 77 77 75 75
36 26 31 41 50 58 60 64 72 83 91 92 91 91 92 92 86 82 80 78 80 80 78 78 77 82 83 83 84 81 80 79 81 83 74 61 43 30 26 26 28 29 30 30 32 41 43 46 54 57 60 66 70 71 71 73 73 73 77 77 74 73
26 22 31 40 49 64 71 74 80 87 90 90 94 97 97 94 88 85 81 77 80 78 76 78 77 82 85 85 84 83 84 83 85 85 81 74 59 47 39 33 32 32 32 32 41 58 65 65 70 69 68 70 71 72 73 71 70 73 78 79 79 75
26 23 27 33 40 54 70 79 83 86 88 88 92 94 92 92 88 82 76 73 78 77 75 77 78 81 85 86 86 85 85 86 87 83 81 82 75 67 56 44 43 42 43 49 58 69 72 72 73 70 68 68 71 73 72 71 73 75 77 81 83 76
28 25 24 26 30 44 65 79 81 82 86 87 88 86 85 88 83 76 75 76 78 77 76 78 77 79 82 84 85 85 85 88 89 83 80 85 80 73 67 59 61 61 62 69 72 73 73 74 73 70 68 69 72 73 70 73 78 78 79 85 85 80
30 29 26 22 26 40 58 71 76 78 82 84 82 80 81 82 78 78 83 82 80 80 79 77 77 78 80 82 83 84 86 89 89 83 80 83 77 72 74 73 74 74 74 75 74 75 75 73 70 70 71 73 73 68 67 72 77 81 82 84 86 86
34 31 28 23 28 42 54 63 73 78 80 81 80 77 77 77 75 81 86 83 81 82 80 78 79 79 78 80 81 82 86 89 87 83 79 79 78 77 80 79 76 78 79 76 74 76 76 73 71 71 73 74 69 64 65 68 72 78 80 83 86 86
41 35 30 25 30 45 55 62 72 79 80 81 80 77 76 76 75 79 83 81 82 83 80 79 80 81 79 79 80 81 86 86 84 83 78 75 79 81 81 79 76 77 76 73 72 74 73 71 71 71 72 70 63 59 64 66 67 71 75 81 83 80
46 38 32 29 35 48 56 62 70 75 80 83 81 79 77 75 75 76 76 76 80 83 83 81 80 80 79 80 81 82 85 85 83 84 78 74 78 80 78 79 76 74 69 66 69 71 69 67 65 67 69 66 60 59 63 62 62 68 74 76 75 75
49 42 41 43 47 52 53 55 61 66 75 81 80 79 76 74 74 73 72 71 74 81 84 84 81 79 78 79 81 82 84 84 83 81 76 74 80 82 81 80 77 71 65 63 67 69 67 63 58 58 64 63 58 59 65 64 64 69 73 73 72 73
52 48 53 60 58 55 52 50 53 57 63 69 73 72 70 70 71 70 70 69 72 80 87 86 82 79 79 80 81 83 85 83 81 79 75 78 85 84 82 79 74 66 62 66 68 65 65 62 53 52 58 59 55 57 64 67 68 72 73 74 74 71
51 47 50 58 60 61 60 56 56 59 61 63 65 63 62 63 65 66 68 71 77 83 88 87 83 81 80 81 82 83 84 81 79 78 78 82 83 80 79 76 71 61 60 69 67 57 59 58 49 51 57 57 56 59 64 65 68 74 75 74 72 69
50 48 44 47 54 61 65 64 62 65 69 71 70 70 71 73 76 78 77 78 82 85 88 86 84 84 81 81 84 83 82 80 80 80 80 81 80 78 75 71 66 59 60 68 60 50 54 51 43 48 54 54 53 55 61 67 70 72 74 73 70 69
52 47 43 45 50 55 59 64 65 66 71 73 74 77 81 84 87 87 86 85 86 86 86 85 84 84 82 82 82 80 78 79 79 79 79 80 78 73 68 66 66 61 59 59 51 48 50 45 44 50 52 51 50 52 60 68 70 71 73 74 71 68
60 51 43 42 46 49 50 54 58 60 67 73 73 74 77 81 83 83 83 83 84 83 83 84 84 83 83 82 81 79 79 78 76 75 75 75 71 65 64 66 66 63 61 55 48 49 48 45 47 51 52 48 49 57 66 70 70 72 73 74 73 70
56 55 50 43 42 46 46 46 50 53 61 69 72 72 71 73 76 78 78 79 80 80 81 83 83 81 82 82 82 82 81 79 76 73 71 67 64 65 68 67 64 65 66 59 53 52 50 49 48 47 50 48 49 61 67 68 70 70 69 69 71 71
46 46 53 53 44 44 45 45 49 52 56 63 69 73 72 70 72 75 78 79 80 81 82 83 82 80 79 79 80 81 80 79 76 74 71 66 66 70 69 64 61 63 65 60 56 55 53 52 48 44 47 50 56 61 60 62 67 64 63 63 63 64
52 42 51 60 51 46 47 45 49 54 58 63 67 74 77 74 73 75 79 83 84 84 83 84 83 79 76 76 78 79 77 76 75 74 72 68 67 66 61 56 55 57 59 58 56 56 55 53 49 46 49 56 60 58 56 61 63 60 59 58 58 61
60 48 54 63 56 50 47 45 53 62 67 73 74 75 78 78 73 71 77 84 88 88 86 85 84 79 74 74 77 78 75 72 74 74 72 70 67 62 56 51 48 50 57 60 58 57 57 53 49 48 52 57 57 56 59 63 60 58 58 60 64 67
65 54 57 64 59 53 54 61 73 79 79 78 74 71 76 81 73 65 67 75 85 92 89 87 88 82 74 76 82 82 75 69 70 71 68 68 66 62 59 53 47 50 56 59 57 56 55 52 49 48 49 54 56 58 64 64 60 58 59 64 70 70
71 59 57 63 60 55 66 82 90 92 89 77 67 68 79 84 75 64 62 65 74 84 87 89 92 86 77 80 86 81 74 70 69 67 65 65 65 64 63 58 53 53 55 55 54 55 54 52 51 49 49 56 61 63 65 64 60 59 63 67 67 63
77 67 58 59 60 60 72 84 85 88 88 76 68 73 80 80 74 68 66 66 68 75 83 88 90 85 78 79 80 76 73 72 68 64 62 61 64 64 62 60 58 55 54 54 56 57 56 54 53 52 54 61 65 65 66 64 61 63 67 67 63 58
80 80 69 61 60 65 74 78 78 80 79 76 74 72 70 72 73 69 67 69 72 75 82 86 85 82 79 76 74 72 71 69 64 60 58 57 59 58 55 55 55 55 56 57 58 57 56 55 55 54 58 64 65 63 62 61 62 66 69 67 61 56
Wind_Speed
10 11 11 12 13 14 15 17 18 18 18 17 17 17 18 18 19 20 20 21 20 19 18 17 18 19 20 20 20 20 20 19 17 17 17 17 16 16 15 14 13 12 11 10 9 8 7 6 6 5 5 4 3 3 3 3 3 4 5 6 6 6
11 11 11 12 12 14 15 16 17 17 17 16 16 17 17 18 18 19 20 20 20 19 17 16 16 18 21 22 22 22 21 20 19 18 18 18 18 17 16 16 15 14 13 12 11 10 8 7 6 6 5 5 5 5 5 5 5 5 6 7 8 9
10 10 11 11 12 13 13 15 16 16 16 16 16 16 16 17 17 18 19 19 19 18 17 16 16 18 22 23 23 24 23 22 20 20 20 19 19 19 18 17 16 16 14 14 13 12 9 8 7 7 7 7 7 7 7 7 7 7 8 9 11 12
10 10 10 11 12 12 13 14 15 15 15 15 15 15 15 16 16 18 18 19 18 16 16 16 15 17 20 22 24 25 25 24 22 21 21 21 20 20 19 19 18 17 16 15 15 14 11 10 9 9 9 10 10 10 10 10 9 9 10 12 14 14
10 10 11 11 12 13 14 15 14 14 14 14 14 14 14 15 16 17 17 18 16 14 15 14 13 17 19 21 24 26 26 25 24 23 23 22 22 21 21 20 19 18 17 16 16 15 14 12 11 10 11 11 12 12 13 12 12 12 13 14 15 15
11 11 11 11 12 14 14 14 12 12 13 13 14 13 14 14 15 16 17 17 16 14 15 14 14 17 18 19 22 25 27 26 25 24 24 23 23 22 22 21 20 20 18 17 17 18 16 15 14 12 12 13 14 14 15 15 15 16 16 16 17 16
11 11 11 12 12 12 12 12 11 12 13 13 13 13 13 14 16 17 17 17 16 15 14 14 15 17 17 18 20 23 26 27 27 26 25 24 23 23 23 22 22 21 19 18 19 19 18 17 16 14 13 14 15 16 17 17 17 17 17 18 18 16
12 12 12 12 12 12 13 13 11 12 13 13 12 12 13 14 17 17 16 16 14 13 12 12 15 17 17 17 18 20 23 26 27 27 26 25 24 24 24 24 23 21 20 20 20 20 20 19 17 15 15 15 16 17 17 18 17 17 18 18 17 15
12 12 12 13 14 14 15 14 12 12 13 13 12 13 14 16 17 17 17 16 14 13 12 12 15 16 16 16 16 17 20 23 26 26 26 26 25 25 25 25 24 22 21 21 21 20 21 20 19 17 16 17 17 17 17 17 17 18 18 17 15 14
12 12 12 13 14 14 14 14 13 13 14 13 13 15 17 19 19 18 18 17 14 13 12 13 15 16 16 15 15 15 17 20 23 25 25 26 26 26 26 26 25 24 23 22 21 21 21 21 20 19 18 18 18 18 17 17 17 18 17 16 14 13
12 12 13 13 15 15 15 16 15 15 16 15 16 17 19 21 21 20 19 18 15 14 13 14 16 15 15 15 15 15 15 18 21 23 25 26 26 27 27 27 26 25 23 22 21 20 21 22 21 20 19 19 18 17 16 16 17 17 16 15 14 13
14 15 15 16 16 17 19 21 19 18 18 18 18 19 21 22 21 20 19 17 15 15 15 15 16 15 14 15 15 15 14 16 20 23 25 26 27 27 27 27 26 25 23 21 20 20 21 22 21 20 19 19 18 17 16 16 16 15 14 13 13 13
16 17 17 18 18 19 22 23 23 21 20 20 19 20 22 21 20 19 17 16 14 14 15 15 15 15 15 15 15 15 15 16 18 21 23 25 26 26 26 26 26 24 22 21 21 22 22 21 21 20 19 18 17 17 17 17 15 14 13 13 14 13
16 16 17 19 20 22 23 24 25 24 23 22 22 21 22 21 20 18 15 14 14 13 14 14 15 15 16 16 15 14 13 14 15 17 20 23 24 25 25 25 25 24 23 22 22 21 21 20 20 19 17 16 17 17 16 15 14 14 14 14 14 13
14 16 17 18 19 21 23 24 25 25 25 25 23 22 22 21 18 15 13 13 13 13 14 14 14 15 16 16 14 13 13 14 14 15 17 18 19 21 23 24 24 23 22 21 20 20 19 18 18 18 17 16 16 16 14 13 13 14 14 14 13 12
13 13 14 14 14 16 19 20 21 24 26 24 21 21 22 19 15 15 15 14 13 13 13 14 14 14 16 16 14 14 14 14 15 15 15 14 14 17 19 20 20 21 20 19 18 17 16 15 15 16 16 15 15 14 13 13 13 13 13 13 13 12
11 11 10 11 11 12 14 16 17 21 24 22 20 21 20 16 14 13 12 10 11 12 12 13 12 13 15 15 15 15 15 16 17 16 14 13 14 15 16 16 16 17 17 17 17 15 13 14 14 15 15 14 13 12 12 13 13 12 12 12 12 10
12 11 9 10 10 10 12 14 14 16 20 19 18 20 18 16 14 11 10 10 11 12 12 12 11 12 14 14 16 17 16 17 19 17 15 15 16 16 15 14 13 14 14 15 15 14 14 15 15 15 14 13 12 12 12 12 12 11 10 10 10 8
14 12 11 12 13 11 10 12 13 14 16 15 16 17 16 15 13 12 12 13 13 12 12 10 10 12 13 13 16 17 16 19 20 19 17 17 17 16 14 13 14 14 14 13 13 13 15 17 16 15 13 12 11 11 11 10 10 9 8 8 9 8
15 14 13 13 14 13 10 11 13 14 14 14 14 15 15 15 14 13 13 13 12 12 11 10 10 12 14 14 16 16 17 21 21 19 18 17 16 15 13 14 15 14 13 13 13 15 16 17 16 15 13 12 11 10 9 9 8 7 7 7 8 7
16 15 13 13 13 11 9 8 9 11 12 13 13 14 15 15 14 14 12 11 12 12 11 11 12 13 14 15 15 15 18 21 20 19 18 17 16 15 15 16 15 13 13 14 15 16 16 16 15 14 12 12 11 10 9 9 8 8 7 7 7 8
15 14 12 12 12 9 6 4 4 6 9 10 11 13 14 15 16 16 13 12 12 13 13 13 13 14 15 17 16 15 18 21 21 18 17 17 16 15 15 15 15 14 14 15 16 17 16 15 14 13 13 12 11 10 10 9 8 8 8 8 8 8
12 10 9 9 9 7 4 2 4 6 8 11 12 14 15 17 18 18 16 15 14 15 16 15 15 15 17 18 17 16 19 22 21 18 16 16 15 14 15 15 15 15 15 16 16 16 16 15 14 13 12 11 11 10 10 9 8 8 8 7 8 8
7 6 5 5 5 4 1 3 5 6 9 12 14 15 15 17 18 19 19 18 17 17 17 17 16 16 18 18 17 18 21 22 21 19 17 15 14 14 15 15 16 16 15 15 15 15 14 14 14 12 11 11 11 10 9 8 8 7 7 7 7 7
4 4 2 2 3 2 4 5 4 5 5 8 10 12 12 14 15 17 18 19 20 19 18 18 17 18 19 18 17 19 21 22 21 20 16 13 14 15 15 16 16 16 15 15 15 14 14 14 13 12 11 11 11 10 8 7 7 7 6 6 7 7
5 6 5 5 6 6 6 4 3 3 3 5 7 8 8 10 12 15 17 19 20 20 19 19 19 19 19 18 18 19 20 21 20 19 15 12 14 15 15 16 16 15 15 15 16 14 14 14 12 11 11 11 10 9 8 8 7 6 6 6 6 6
10 8 8 7 8 9 7 6 5 5 6 8 10 11 12 12 13 15 17 20 21 20 20 19 19 19 19 19 19 19 21 20 18 17 14 13 14 15 15 15 15 15 15 16 16 13 13 14 12 11 11 11 10 10 8 8 8 7 6 6 6 6
12 9 8 9 9 10 9 8 9 9 9 10 12 14 16 16 16 16 17 19 20 19 19 19 19 19 19 20 20 20 20 17 16 16 14 13 14 15 16 15 15 16 16 16 14 13 14 13 12 12 12 11 10 9 9 8 8 6 6 5 5 6
12 11 11 11 12 12 12 12 13 13 13 12 13 15 17 18 18 18 18 18 19 19 19 19 19 20 21 21 21 20 18 15 15 16 15 15 15 14 15 15 14 15 15 14 13 14 14 13 13 13 12 11 10 9 8 8 7 6 6 5 5 6
12 13 15 16 16 15 16 16 16 16 16 15 15 15 17 18 19 19 19 19 18 18 19 19 19 20 21 21 21 20 18 16 16 15 15 15 14 13 14 13 13 14 13 12 13 14 14 13 14 13 12 11 10 10 9 7 7 7 7 6 6 7
14 14 16 19 21 20 20 20 19 19 19 19 18 17 17 17 18 18 18 18 18 19 19 20 20 20 21 21 21 19 18 17 16 15 15 15 13 12 13 12 12 13 13 13 13 14 14 14 13 12 12 12 11 11 10 8 8 8 8 8 8 8
17 16 17 21 22 24 24 23 22 22 22 22 21 20 18 17 17 18 17 18 19 20 20 20 20 21 22 22 20 19 17 17 16 15 14 14 12 12 12 12 13 14 13 13 14 14 14 14 13 11 12 13 12 12 10 9 9 8 9 9 8 8
18 18 18 23 25 26 27 27 26 25 24 23 22 20 19 18 18 19 19 20 20 20 21 21 21 22 22 20 19 17 16 15 15 15 14 13 13 12 11 12 13 13 13 14 14 14 14 13 12 12 13 14 13 12 11 10 9 9 9 9 8 8
18 18 19 26 28 28 31 31 28 26 23 20 18 18 18 18 19 19 20 21 21 22 22 22 22 22 21 19 17 17 15 15 15 15 15 14 13 12 11 12 12 12 13 14 14 14 13 13 13 13 14 14 13 12 11 10 9 10 10 9 8 9
20 20 21 27 30 31 35 33 27 23 18 12 14 18 19 18 18 16 18 20 21 22 22 21 22 22 21 19 18 17 16 15 15 15 15 15 14 13 13 14 13 12 13 14 13 13 12 13 13 13 13 13 13 13 12 11 11 11 12 11 11 11
23 24 25 29 32 34 35 28 20 19 14 11 16 19 16 15 16 15 15 17 20 20 20 20 23 24 23 21 19 18 16 15 16 15 15 15 15 15 15 14 13 13 13 13 13 13 13 13 13 13 14 14 14 13 13 13 13 13 13 12 12 11
25 27 30 32 33 34 33 24 18 16 14 15 16 15 12 11 14 16 16 15 17 20 21 21 23 24 24 22 19 18 16 16 16 15 15 15 15 16 15 14 13 13 12 13 13 13 13 13 13 13 14 14 14 14 14 14 14 14 14 14 13 12
Wind_Direction
195 202 208 214 220 226 232 237 240 243 244 243 239 235 232 231 229 226 226 224 220 219 218 222 225 220 215 214 212 213 214 213 211 212 213 214 217 219 221 226 229 229 229 231 230 218 205 198 201 208 217 229 246 262 270 288 303 310 313 313 313 310
191 198 207 214 220 227 233 239 244 247 247 246 243 239 236 233 230 228 227 226 223 219 217 222 230 226 219 215 215 215 216 214 213 215 217 218 219 221 223 227 230 232 234 238 239 232 222 216 218 224 231 243 255 266 273 281 290 296 301 305 306 302
194 201 209 217 223 230 236 242 245 247 248 248 248 245 241 237 233 231 229 227 224 220 217 218 225 229 222 217 217 218 218 215 214 216 220 222 222 223 224 227 231 234 237 241 244 243 236 232 234 239 247 257 266 274 278 279 282 286 294 299 299 295
208 214 219 224 230 237 240 244 245 246 248 250 251 250 246 241 237 232 229 227 222 221 220 215 220 230 225 218 218 219 220 217 216 217 220 224 224 225 226 228 231 234 238 243 248 250 248 244 244 250 257 265 273 281 283 283 283 285 292 300 302 293
223 227 232 236 240 242 243 245 246 247 249 251 251 250 249 245 239 232 229 226 219 215 213 212 221 229 225 220 220 221 222 220 219 219 220 224 226 227 228 230 232 236 239 244 250 252 252 251 249 253 260 268 274 278 281 284 287 289 290 298 307 300
232 237 243 247 250 250 250 251 253 256 255 253 251 248 247 244 241 235 227 221 221 220 220 225 225 222 221 221 221 221 223 222 222 222 222 225 227 229 231 232 234 237 240 243 250 253 253 253 252 254 260 267 273 277 282 286 291 293 292 296 306 306
241 248 253 257 260 261 262 264 266 265 260 254 250 247 244 241 241 236 224 223 230 230 230 232 221 217 220 221 222 223 223 223 223 224 225 226 228 231 234 235 236 238 239 243 249 253 255 256 257 259 264 270 274 279 284 289 293 295 296 298 303 302
250 256 260 264 270 275 276 274 270 266 260 252 244 240 236 235 239 236 227 227 227 222 229 233 223 220 221 221 224 225 225 225 225 225 226 227 229 232 235 237 238 237 238 242 248 253 257 259 260 262 266 270 274 278 283 289 294 296 299 300 300 296
261 268 274 278 281 283 281 275 267 261 255 246 236 230 228 229 231 230 227 222 218 225 237 234 223 220 222 225 228 228 229 228 227 228 228 229 230 232 235 238 238 238 239 242 247 251 256 260 262 263 266 269 273 278 283 289 294 298 301 301 299 294
274 280 282 282 278 275 276 272 263 255 248 238 229 224 224 224 223 222 220 215 217 228 230 221 216 217 220 224 227 230 232 232 230 230 230 230 231 232 235 237 238 239 240 242 246 250 256 261 263 265 268 272 275 280 285 289 293 298 299 297 298 297
275 279 278 278 278 276 274 268 256 250 248 236 226 224 223 221 219 217 215 214 216 216 214 215 215 216 219 221 224 226 228 231 230 230 232 232 232 233 234 236 238 239 240 242 245 250 256 261 265 268 271 274 278 282 285 287 291 294 293 293 297 297
270 270 272 278 283 281 276 270 260 253 250 237 227 224 222 220 217 216 215 214 210 203 205 213 216 220 224 222 221 221 223 226 227 228 230 232 234 234 235 238 240 241 242 243 245 248 253 259 264 267 270 273 277 282 284 286 289 289 289 292 295 294
270 270 274 279 280 276 274 272 267 259 250 241 233 227 223 220 217 216 215 209 204 203 207 212 219 226 225 220 218 219 222 224 225 227 228 231 233 235 236 238 240 242 243 244 246 248 252 256 260 263 267 272 277 282 283 284 285 283 286 291 293 293
271 275 281 282 277 273 272 272 269 263 252 241 236 230 224 219 215 213 212 204 202 207 213 217 222 223 219 217 217 218 221 223 225 227 229 231 233 235 237 238 239 240 241 243 246 250 253 255 258 262 267 272 277 280 279 278 278 279 283 287 291 292
277 287 293 291 285 279 276 274 270 266 257 243 237 231 221 217 214 210 207 202 203 208 215 220 216 213 214 214 217 222 225 226 225 226 230 232 232 234 236 238 239 239 241 244 247 251 253 255 259 262 264 268 273 274 273 272 275 279 282 284 288 291
293 309 313 307 300 289 282 278 270 266 260 247 239 230 219 220 220 215 209 200 202 210 213 215 211 210 214 215 220 228 229 228 225 225 229 230 230 231 233 236 237 239 241 243 244 248 251 253 258 260 260 263 266 267 268 271 274 279 283 284 287 289
316 333 326 314 309 294 281 276 268 263 261 250 235 225 218 219 223 223 225 214 207 211 210 211 213 211 214 220 230 234 232 229 224 222 225 225 225 227 229 230 232 235 236 237 238 242 248 253 258 260 259 259 261 263 266 271 274 278 284 286 289 291
334 342 333 321 312 289 270 267 262 256 257 248 230 225 219 214 216 218 236 238 221 215 212 212 216 217 220 228 235 236 234 229 223 220 221 218 217 220 223 223 227 230 230 235 239 242 248 252 256 256 255 255 257 262 268 273 274 275 279 280 287 294
339 340 339 332 316 294 266 256 254 245 243 236 228 229 216 203 207 215 230 237 227 221 219 219 227 231 233 232 232 234 232 227 223 220 219 214 212 214 214 220 224 225 228 236 242 245 249 248 249 252 255 254 254 261 271 275 271 268 268 271 284 294
339 338 336 336 324 307 282 258 249 241 235 234 236 230 209 196 203 219 234 238 232 230 227 232 238 236 236 231 228 230 227 225 222 217 213 209 210 211 211 219 223 223 230 236 239 241 243 243 245 250 254 252 251 258 267 271 266 261 259 262 273 282
338 338 335 339 333 315 295 273 254 246 241 240 235 221 206 198 205 224 239 241 238 236 233 238 240 235 235 229 225 226 222 221 219 212 206 203 208 214 218 225 228 230 234 236 235 235 236 240 243 247 249 248 248 254 259 263 263 258 254 250 255 265
338 338 336 341 338 318 292 265 230 231 238 237 225 213 207 204 211 226 238 243 243 238 237 240 239 233 231 225 220 221 216 214 215 212 204 202 208 217 224 232 236 234 233 234 233 231 231 233 237 242 246 245 246 250 252 256 261 262 251 239 246 259
340 336 337 345 335 311 282 212 176 187 208 222 219 211 210 211 215 224 234 244 247 243 241 241 241 235 229 224 218 214 210 210 216 219 208 203 212 224 230 234 236 233 232 231 230 230 231 232 234 239 244 245 246 248 250 253 260 265 256 245 249 258
341 331 338 344 324 304 188 140 147 166 191 210 216 215 217 220 221 225 233 242 247 248 246 242 241 236 229 227 221 214 211 212 219 222 212 207 219 228 231 232 232 233 234 231 226 228 234 236 235 236 239 241 243 246 249 254 257 259 260 258 258 260
352 339 313 231 247 216 144 137 134 141 169 195 204 208 214 219 221 227 233 239 245 249 247 243 239 233 227 226 223 217 216 217 224 226 217 214 225 227 225 227 229 232 233 226 221 224 231 233 233 235 238 242 245 246 246 248 251 255 260 260 260 264
319 313 286 234 212 191 171 171 176 172 195 217 218 216 222 226 229 234 238 242 246 247 246 242 234 227 223 223 223 219 218 221 228 231 221 214 223 222 220 224 229 232 228 219 219 224 229 231 232 233 238 243 246 246 245 247 247 246 251 252 256 265
295 286 275 250 215 199 192 199 217 229 235 238 237 236 241 246 247 247 245 244 243 242 242 239 231 225 222 221 221 219 218 219 226 233 224 213 218 221 222 224 227 229 223 219 222 225 229 233 232 231 236 240 241 242 243 246 245 244 250 255 255 258
284 268 257 246 223 209 208 212 225 238 244 243 238 234 235 238 241 243 244 242 239 238 237 232 226 222 222 222 221 222 222 218 223 233 230 222 224 227 227 224 224 227 223 223 226 223 225 231 227 226 231 233 236 239 240 243 248 252 261 265 257 254
272 262 253 249 236 222 219 219 223 230 235 240 240 237 235 234 235 235 237 239 237 235 233 228 222 218 220 223 221 225 227 223 225 232 235 235 235 233 229 223 223 228 225 224 229 226 225 226 223 224 227 228 228 229 234 245 254 257 258 258 256 262
269 262 254 251 245 236 228 223 223 225 227 233 238 242 241 240 239 238 238 238 237 236 234 229 221 217 220 223 221 221 224 225 230 234 237 240 235 227 225 223 222 224 222 223 229 231 229 228 228 228 228 229 225 220 223 233 242 246 248 249 252 260
273 265 252 245 244 243 235 226 223 225 226 230 236 240 243 242 241 241 241 240 237 236 235 228 220 217 219 222 220 219 221 225 231 235 235 236 230 221 222 225 224 222 222 225 230 232 232 232 233 231 230 228 223 219 221 225 234 239 243 247 248 254
269 266 244 229 235 243 241 231 225 226 226 230 234 238 243 243 240 239 239 239 235 234 233 227 220 217 217 219 219 221 224 227 230 232 232 231 227 223 224 227 229 229 229 230 231 233 234 234 232 227 225 224 220 220 221 224 233 238 243 247 251 256
262 263 238 217 223 237 242 237 229 225 223 225 229 234 242 247 244 240 237 234 229 229 230 225 221 217 215 217 219 221 224 226 225 227 228 228 228 227 228 231 232 232 230 231 232 232 232 231 228 221 218 220 221 220 220 222 229 236 242 247 252 256
259 259 234 214 217 228 237 238 233 229 226 226 234 240 243 249 249 249 250 242 230 224 223 219 218 217 214 215 217 217 219 219 220 223 224 226 228 228 229 230 229 227 226 229 230 229 230 228 226 222 220 220 219 218 218 221 229 236 239 239 240 245
251 248 230 215 216 225 236 240 241 244 242 240 247 244 241 247 251 256 265 261 246 232 222 215 214 214 212 213 215 213 215 216 217 221 224 225 226 226 227 226 223 220 223 226 226 226 228 225 222 221 221 219 219 219 218 221 228 234 234 233 234 240
243 239 230 222 220 229 240 247 255 263 260 247 246 246 244 250 257 260 264 263 254 239 224 216 216 214 207 205 210 211 211 216 219 220 223 225 224 225 226 224 221 220 222 224 224 223 221 219 218 217 217 218 220 222 222 223 227 230 232 234 236 241
247 238 234 229 228 237 246 254 263 263 251 241 244 254 260 260 263 263 263 261 251 236 224 218 220 220 209 197 200 208 210 215 220 222 223 223 222 224 225 225 224 222 222 223 224 222 218 216 215 215 218 222 225 227 227 227 227 227 231 235 237 239